COSMOS 2278

Last updated on Fri Jul 11 2025 00:02:13 GMT+0000 (Coordinated Universal Time)

1 23087U 94023A 25191.64524959 -.00000273 00000+0 -11805-3 0 9991 2 23087 71.0548 321.4716 0007730 23.7345 336.4132 14.14305670610585
UTC large
Height (km)
Speed (km/s)
/
Latitude / Longitude
Inclination (degrees)
Orbital Period (minutes)
Azimuth
Elevation
Range (km)
Doppler Factor

Next 0 passes for location: London (51.5072 / 0.1276)

Sorry there are no passes over London.